TimeHST,TemperatureF,Dew PointF,Humidity,Sea Level PressureIn,VisibilityMPH,Wind Direction,Wind SpeedMPH,Gust SpeedMPH,PrecipitationIn,Events,Conditions,WindDirDegrees,DateUTC
12:33 AM,71.6,66.2,83,30.06,10.0,Variable,1.2,-,N/A,,Mostly Cloudy,0,2013-09-08 10:33:00
12:38 AM,71.6,66.2,83,30.06,10.0,Calm,Calm,-,N/A,,Mostly Cloudy,0,2013-09-08 10:38:00
12:48 AM,71.6,66.2,83,30.06,10.0,Calm,Calm,-,N/A,,Mostly Cloudy,0,2013-09-08 10:48:00
12:58 AM,71.1,66.6,86,30.06,10.0,ENE,3.5,-,N/A,,Mostly Cloudy,60,2013-09-08 10:58:00
1:58 AM,69.4,65.8,88,30.04,10.0,NNW,3.5,-,N/A,,Clear,340,2013-09-08 11:58:00
2:58 AM,70.3,66.7,88,30.03,10.0,Variable,3.5,-,N/A,,Clear,0,2013-09-08 12:58:00
3:58 AM,73.4,66.2,78,30.02,10.0,WNW,4.6,-,N/A,,Clear,290,2013-09-08 13:58:00
4:58 AM,69.6,64.8,84,30.03,10.0,West,4.6,-,N/A,,Clear,270,2013-09-08 14:58:00
5:58 AM,67.8,64.4,89,30.04,10.0,NW,1.2,-,N/A,,Clear,320,2013-09-08 15:58:00
6:58 AM,69.1,65.1,87,30.05,10.0,WNW,5.8,-,N/A,,Clear,290,2013-09-08 16:58:00
7:58 AM,73.9,68.0,82,30.06,10.0,Calm,Calm,-,N/A,,Clear,0,2013-09-08 17:58:00
8:58 AM,79.3,67.6,67,30.07,10.0,East,10.4,-,N/A,,Clear,90,2013-09-08 18:58:00
9:58 AM,81.7,65.5,58,30.08,10.0,ESE,10.4,16.1,N/A,,Clear,120,2013-09-08 19:58:00
10:58 AM,82.8,65.1,55,30.08,10.0,East,11.5,20.7,N/A,,Partly Cloudy,80,2013-09-08 20:58:00
11:58 AM,83.7,64.9,53,30.06,10.0,East,15.0,20.7,N/A,,Clear,80,2013-09-08 21:58:00
12:11 PM,84.2,64.4,51,30.06,10.0,East,13.8,-,N/A,,Clear,100,2013-09-08 22:11:00
12:38 PM,84.2,64.4,51,30.06,10.0,ENE,18.4,24.2,N/A,,Clear,70,2013-09-08 22:38:00
12:58 PM,84.2,64.6,52,30.05,10.0,ENE,15.0,20.7,N/A,,Clear,70,2013-09-08 22:58:00
1:58 PM,84.4,64.8,52,30.03,10.0,ENE,17.3,21.9,N/A,,Partly Cloudy,70,2013-09-08 23:58:00
2:07 PM,84.2,64.4,51,30.04,10.0,ESE,13.8,20.7,N/A,,Partly Cloudy,110,2013-09-09 00:07:00
2:58 PM,84.4,64.2,51,30.03,10.0,ENE,16.1,20.7,N/A,,Partly Cloudy,70,2013-09-09 00:58:00
3:09 PM,84.2,64.4,51,30.02,10.0,ESE,12.7,21.9,N/A,,Clear,110,2013-09-09 01:09:00
3:58 PM,83.5,65.3,54,30.02,10.0,East,8.1,20.7,N/A,,Clear,80,2013-09-09 01:58:00
4:58 PM,81.3,66.4,60,30.03,10.0,East,10.4,-,N/A,,Clear,100,2013-09-09 02:58:00
5:58 PM,79.7,66.4,64,30.04,10.0,ENE,11.5,-,N/A,,Clear,70,2013-09-09 03:58:00
6:58 PM,77.0,66.0,69,30.06,10.0,East,6.9,-,N/A,,Clear,100,2013-09-09 04:58:00
7:58 PM,76.3,66.4,71,30.07,10.0,East,6.9,-,N/A,,Clear,90,2013-09-09 05:58:00
8:58 PM,75.4,66.4,73,30.09,10.0,East,3.5,-,N/A,,Clear,80,2013-09-09 06:58:00
9:51 PM,73.4,66.2,78,30.10,10.0,ENE,4.6,-,N/A,,Light Drizzle,60,2013-09-09 07:51:00
9:58 PM,74.3,66.7,77,30.10,10.0,ENE,2.3,-,0.00,,Light Drizzle,60,2013-09-09 07:58:00
10:00 PM,75.2,66.2,73,30.10,10.0,ENE,3.5,-,N/A,,Mostly Cloudy,60,2013-09-09 08:00:00
10:58 PM,70.9,65.8,84,30.10,10.0,West,3.5,-,0.00,,Partly Cloudy,280,2013-09-09 08:58:00
11:58 PM,71.4,65.5,81,30.09,10.0,NW,1.2,-,N/A,,Clear,320,2013-09-09 09:58:00